Location: Newark
(52.5667°N, 8.8000°W)
Time: 13:26:34
(UTC+00:00)

N. Korean satellite - Visible Passes

Search period start: 24 January 2020 00:00
Search period end: 03 February 2020 00:00
Orbit: 454 x 507 km, 97.2° (Epoch: 23 January)

Date Brightness Start Highest point End Pass type
(mag) Time Alt. Az. Time Alt. Az. Time Alt. Az.
24 Jan 7.9 06:08:52 10° NNE 06:12:14 40° E 06:15:39 10° S visible
24 Jan 7.8 07:42:46 10° NNW 07:45:26 20° WNW 07:48:07 10° WSW visible
24 Jan 9.5 18:24:08 10° SW 18:26:41 19° W 18:29:16 10° NW visible
25 Jan 9.1 05:43:45 10° NE 05:46:36 22° E 05:49:29 10° SSE visible
25 Jan 7.1 07:16:49 10° N 07:20:05 35° WNW 07:23:23 10° SW visible
25 Jan 8.3 17:57:50 10° SSW 18:01:01 35° W 18:04:14 10° NNW visible
26 Jan 10.0 05:19:13 10° ENE 05:20:52 13° E 05:22:32 10° ESE visible
26 Jan 6.5 06:51:07 10° N 06:54:40 66° WNW 06:58:15 10° SSW visible
27 Jan 7.0 06:25:35 10° NNE 06:29:09 64° ESE 06:32:45 10° S visible
27 Jan 9.9 18:42:00 10° WSW 18:43:42 13° W 18:45:25 10° WNW visible
28 Jan 8.4 06:00:17 10° NNE 06:03:35 33° E 06:06:53 10° SSE visible
28 Jan 7.6 07:33:55 10° N 07:36:51 24° WNW 07:39:50 10° WSW visible
28 Jan 9.2 18:15:09 10° SSW 18:17:57 24° W 18:20:50 10° NW visible
29 Jan 9.4 05:35:16 10° NE 05:37:54 19° E 05:40:33 10° SE visible
29 Jan 6.9 07:08:04 10° N 07:11:29 43° WNW 07:14:56 10° SW visible
29 Jan 7.9 17:49:01 10° S 17:52:19 44° W 17:55:40 10° NNW visible
30 Jan 10.2 05:11:19 10° ENE 05:12:08 11° E 05:12:57 10° E visible
30 Jan 6.5 06:42:25 10° NNE 06:46:02 82° WNW 06:49:41 10° SSW visible
31 Jan 7.5 06:16:57 10° NNE 06:20:29 51° E 06:24:05 10° S visible
31 Jan 9.7 18:32:43 10° SW 18:34:57 16° W 18:37:11 10° NW visible
01 Feb 8.8 05:51:43 10° NE 05:54:53 28° E 05:58:04 10° SSE visible
01 Feb 7.4 07:25:05 10° N 07:28:16 29° WNW 07:31:27 10° SW visible
01 Feb 8.8 18:06:11 10° SSW 18:09:13 29° W 18:12:20 10° NNW visible
02 Feb 9.7 05:26:51 10° NE 05:29:10 16° E 05:31:29 10° SE visible
02 Feb 6.7 06:59:18 10° N 07:02:52 53° WNW 07:06:26 10° SSW visible
